Montauk, NY

9:10 PM EDT on September 20, 2017 (GMT -0400)
Montauk

Weather History for KMTP - December, 2013

Change the Weather History Date:

Sunday, December 1, 2013

  Actual Average (KHTO) Record (KHTO)
Temperature  
Mean Temperature 46 °F -  
Max Temperature 50 °F 46 °F 69 °F (2001)
Min Temperature 42 °F 31 °F 15 °F (1936)
Degree Days  
Heating Degree Days 19    
Moisture  
Dew Point 42 °F    
Average Humidity 84    
Maximum Humidity 96    
Minimum Humidity 67    
Precipitation  
Precipitation 0.07 in - - ()
Sea Level Pressure  
Sea Level Pressure 30.16 in    
Wind  
Wind Speed 5 mph (SSW)    
Max Wind Speed 7 mph    
Max Gust Speed -    
Averages and records for this station are not official NWS values.
T = Trace of Precipitation, MM = Missing Value Source: NWS Daily Summary

Daily Weather History Graph

Daily Weather History Graph

Search for Another Location

Airport or City:

Trip Planner

Search our weather history database for the weather conditions in past years. The results will help you decide how hot, cold, wet, or windy it might be!

Date:

Astronomy

Dec. 01, 2013 Rise Set
Actual Time 6:53 AM EST 4:19 PM EST
Civil Twilight 6:23 AM EST 4:50 PM EST
Nautical Twilight 5:48 AM EST 5:24 PM EST
Astronomical Twilight 5:15 AM EST 5:57 PM EST
Moon 5:07 AM EST (12/1) 3:27 PM EST (12/1)
Length of Visible Light 10h 27m
Length of Day
9h 26m
Waning Crescent, 2% of the Moon is Illuminated
Dec 1
Waning Crescent
Dec 2
New
Dec 9
First Quarter
Dec 17
Full
Dec 25
Last Quarter

Hourly Weather History & Observations

Time (EST) Temp. Windchill Dew Point Humidity Pressure Visibility Wind Dir Wind Speed Gust Speed Precip Events Conditions
12:54 AM 42.1 °F 39.2 °F 32.0 °F 67% 30.39 in - SE 4.6 mph - N/A   Unknown
1:54 AM 44.1 °F 40.1 °F 34.0 °F 68% 30.36 in - SSE 6.9 mph - N/A   Unknown
2:54 AM 45.0 °F 42.6 °F 36.0 °F 71% 30.35 in - SSE 4.6 mph - N/A   Unknown
3:54 AM 45.0 °F 42.6 °F 37.0 °F 74% 30.31 in - SSE 4.6 mph - N/A   Unknown
4:54 AM 46.0 °F 43.1 °F 37.0 °F 71% 30.28 in - SSE 5.8 mph - N/A   Unknown
5:54 AM 46.9 °F - 39.0 °F 74% 30.27 in - SSE 6.9 mph - N/A   Unknown
6:54 AM 48.0 °F - 39.9 °F 74% 30.25 in - SE 6.9 mph - N/A   Unknown
7:54 AM 48.9 °F - 41.0 °F 74% 30.24 in - SSE 6.9 mph - N/A   Unknown
8:54 AM 48.9 °F - 42.1 °F 77% 30.23 in - SSE 6.9 mph - N/A   Unknown
9:54 AM 48.9 °F - 44.1 °F 83% 30.22 in - Variable 6.9 mph - N/A   Unknown
10:54 AM 48.9 °F - 46.0 °F 90% 30.19 in - East 4.6 mph - 0.01 in   Unknown
11:54 AM 48.9 °F - 46.9 °F 93% 30.15 in - Variable 3.5 mph - 0.03 in   Unknown
12:54 PM 50.0 °F - 48.0 °F 93% 30.11 in - SSE 3.5 mph - 0.03 in   Unknown
1:54 PM 50.0 °F - 46.0 °F 86% 30.08 in - South 4.6 mph - N/A   Unknown
2:54 PM 50.0 °F - 46.9 °F 89% 30.07 in - Calm Calm - N/A   Unknown
3:54 PM 48.9 °F - 46.0 °F 90% 30.06 in - West 3.5 mph - N/A   Unknown
4:54 PM 46.9 °F - 45.0 °F 93% 30.06 in - West 3.5 mph - N/A   Unknown
5:54 PM 46.9 °F - 45.0 °F 93% 30.06 in - West 5.8 mph - N/A   Unknown
6:54 PM 46.0 °F 43.1 °F 45.0 °F 96% 30.06 in - West 5.8 mph - N/A   Unknown
7:54 PM 46.0 °F 43.9 °F 44.1 °F 93% 30.05 in - West 4.6 mph - N/A   Unknown
8:54 PM 45.0 °F 42.6 °F 43.0 °F 93% 30.05 in - NW 4.6 mph - N/A   Unknown
9:54 PM 45.0 °F 43.5 °F 43.0 °F 93% 30.04 in - WNW 3.5 mph - N/A   Unknown
10:54 PM 44.1 °F 42.5 °F 42.1 °F 93% 30.03 in - NW 3.5 mph - N/A   Unknown
11:54 PM 44.1 °F 42.5 °F 42.1 °F 93% 30.02 in - NW 3.5 mph - N/A   Unknown